Kirksville, MO

4:25 AM CST on February 21, 2017 (GMT -0600)
Kirksville Regional

Weather History for KIRK - September, 2012

Change the Weather History Date:

Wednesday, September 19, 2012

  Actual Average Record
Temperature  
Mean Temperature 61 °F 63 °F  
Max Temperature 79 °F 75 °F 95 °F (1948)
Min Temperature 43 °F 52 °F 34 °F (1991)
Degree Days  
Heating Degree Days 4 4  
Month to date heating degree days 54 36  
Since 1 July heating degree days 61 43  
Cooling Degree Days 0 2  
Month to date cooling degree days 84 68  
Year to date cooling degree days 1296 912  
Growing Degree Days 11 (Base 50)    
Moisture  
Dew Point 45 °F    
Average Humidity 56    
Maximum Humidity 76    
Minimum Humidity 35    
Precipitation  
Precipitation 0.00 in 0.13 in 2.25 in (1929)
Month to date precipitation 2.56 2.78  
Year to date precipitation 20.39 30.19  
Sea Level Pressure  
Sea Level Pressure 29.97 in    
Wind  
Wind Speed 12 mph (SSW)    
Max Wind Speed 25 mph    
Max Gust Speed 35 mph    
Visibility 10 miles    
Events      
T = Trace of Precipitation, MM = Missing Value Source: NWS Daily Summary

Daily Weather History Graph

Daily Weather History Graph

Search for Another Location

Airport or City:

Trip Planner

Search our weather history database for the weather conditions in past years. The results will help you decide how hot, cold, wet, or windy it might be!

Date:

Astronomy

Sep. 19, 2012 Rise Set
Actual Time 6:55 AM CDT 7:11 PM CDT
Civil Twilight 6:28 AM CDT 7:38 PM CDT
Nautical Twilight 5:56 AM CDT 8:10 PM CDT
Astronomical Twilight 5:23 AM CDT 8:42 PM CDT
Moon 11:06 AM CDT (9/19) 9:21 PM CDT (9/19)
Length of Visible Light 13h 10m
Length of Day
12h 16m
Waxing Crescent, 17% of the Moon is Illuminated
Sep 19
Waxing Crescent
Sep 22
First Quarter
Sep 29
Full
Oct 8
Last Quarter
Oct 15
New

Hourly Weather History & Observations

Time (CDT) Temp. Windchill Dew Point Humidity Pressure Visibility Wind Dir Wind Speed Gust Speed Precip Events Conditions
12:55 AM 46.0 °F 44.8 °F 37.0 °F 71% 30.07 in 10.0 mi SSW 3.5 mph - N/A   Clear
1:55 AM 44.1 °F 40.8 °F 37.0 °F 76% 30.06 in 10.0 mi South 5.8 mph - N/A   Mostly Cloudy
2:55 AM 45.0 °F 41.8 °F 37.9 °F 76% 30.05 in 10.0 mi South 5.8 mph - N/A   Clear
3:55 AM 46.9 °F - 39.0 °F 74% 30.04 in 10.0 mi South 6.9 mph - N/A   Clear
4:55 AM 48.0 °F - 37.9 °F 68% 30.05 in 10.0 mi SSW 8.1 mph - N/A   Clear
5:55 AM 48.0 °F - 37.0 °F 66% 30.05 in 10.0 mi South 8.1 mph - N/A   Clear
6:55 AM 50.0 °F - 36.0 °F 59% 30.05 in 10.0 mi SSW 10.4 mph - N/A   Clear
7:55 AM 52.0 °F - 37.0 °F 57% 30.06 in 10.0 mi South 11.5 mph - N/A   Clear
8:55 AM 57.9 °F - 39.0 °F 49% 30.04 in 10.0 mi South 16.1 mph - N/A   Clear
9:55 AM 64.0 °F - 42.1 °F 45% 30.03 in 10.0 mi South 15.0 mph 25.3 mph N/A   Clear
10:55 AM 66.9 °F - 43.0 °F 42% 30.00 in 10.0 mi South 18.4 mph 32.2 mph N/A   Clear
11:55 AM 72.0 °F - 45.0 °F 38% 29.97 in 10.0 mi SSW 23.0 mph 29.9 mph N/A   Clear
12:55 PM 73.9 °F - 46.9 °F 38% 29.95 in 10.0 mi SSW 19.6 mph 29.9 mph N/A   Clear
1:55 PM 77.0 °F - 48.0 °F 36% 29.92 in 10.0 mi SW 15.0 mph 28.8 mph N/A   Clear
2:55 PM 77.0 °F - 48.9 °F 37% 29.89 in 10.0 mi SSW 17.3 mph 31.1 mph N/A   Clear
3:55 PM 78.1 °F - 48.9 °F 36% 29.88 in 10.0 mi SW 18.4 mph 27.6 mph N/A   Clear
4:55 PM 78.1 °F - 51.1 °F 39% 29.86 in 10.0 mi SSW 17.3 mph 25.3 mph N/A   Clear
5:55 PM 75.9 °F - 50.0 °F 40% 29.85 in 10.0 mi SSW 18.4 mph 28.8 mph N/A   Clear
6:55 PM 73.9 °F - 51.1 °F 45% 29.85 in 10.0 mi SW 12.7 mph 19.6 mph N/A   Clear
7:55 PM 70.0 °F - 51.1 °F 51% 29.88 in 10.0 mi SW 5.8 mph - N/A   Clear
8:55 PM 68.0 °F - 52.0 °F 56% 29.89 in 10.0 mi SSW 8.1 mph - N/A   Clear
9:55 PM 66.9 °F - 52.0 °F 59% 29.89 in 10.0 mi SSW 9.2 mph - N/A   Partly Cloudy
10:55 PM 66.0 °F - 51.1 °F 59% 29.91 in 10.0 mi WNW 6.9 mph - N/A   Partly Cloudy
11:55 PM 62.1 °F - 52.0 °F 70% 29.92 in 10.0 mi West 3.5 mph - N/A   Clear